Back to catalog

DELTA 1 DEB

AliveSSO
NORAD 13565·DEBRIS·🇺🇸 United States

Launched Mar 5, 1978 from Vandenberg Space Force Base

Loading…

Next Passes (next 24 hours)

TLE

FreshSource: Space-Track

Epoch: Sep 13, 2026, 08:39 UTC

1 13565U 78026FC  26256.36063317  .00000044  00000-0  61059-4 0  9996
2 13565  98.8698 210.3062 0067846  68.5267  83.1352 13.96665920249104

Track DELTA 1 DEB in real time with AllMySat

Download on the App Store